This is the latest recevied weather packets stored in our database for station/object N5LOC. If no packets are shown the sender has not sent any weather packets the latest 1 day(s).
| Time | Temp. | Humidity | Pressure | Rain* | Wind** | Luminosity | Snow |
|---|---|---|---|---|---|---|---|
| 1778085028 | 12.78° C | 89% | 1015.9 hPa | 3.56 mm | - | - | - |
| 1778079629 | 12.78° C | 84% | 1016 hPa | 0 mm | - | - | - |
| 1778077830 | 12.22° C | 83% | 1015.7 hPa | 0 mm | - | - | - |
| 1778072425 | 12.22° C | 85% | 1014.4 hPa | 0 mm | - | - | - |
| 1778070624 | 12.78° C | 83% | 1014 hPa | 0 mm | - | - | - |
| 1778068825 | 12.78° C | 82% | 1014 hPa | 0 mm | - | - | - |
| 1778067026 | 13.33° C | 79% | 1013.2 hPa | 0 mm | - | - | - |
| 1778063423 | 13.89° C | 77% | 1012 hPa | 0 mm | - | - | - |
| 1778061629 | 14.44° C | 77% | 1011.6 hPa | 0 mm | - | - | - |
| 1778056225 | 15° C | 78% | 1011 hPa | 0 mm | - | - | - |
| 1778054429 | 15° C | 78% | 1010.7 hPa | 0 mm | - | - | - |
| 1778052632 | 15.56° C | 79% | 1010.9 hPa | 0 mm | - | - | - |
| 1778050827 | 15.56° C | 79% | 1010.8 hPa | 0 mm | - | - | - |
| 1778049027 | 16.11° C | 79% | 1010.8 hPa | 0 mm | - | - | - |
| 1778043646 | 17.78° C | 80% | 1010.3 hPa | 0 mm | - | - | - |
| 1778041824 | 18.89° C | 79% | 1010.2 hPa | 0 mm | - | - | - |
| 1778040030 | 20° C | 78% | 1009.8 hPa | 0 mm | - | - | - |
| 1778038228 | 21.11° C | 77% | 1009.8 hPa | 0 mm | - | - | - |
| 1778036426 | 21.67° C | 77% | 1008.9 hPa | 0 mm | - | - | - |
| 1778034626 | 23.33° C | 74% | 1008 hPa | 0 mm | - | - | - |
| 1778031025 | 24.44° C | 72% | 1006.8 hPa | 0 mm | - | - | - |
| 1778029224 | 26.11° C | 70% | 1006.5 hPa | 0 mm | - | - | - |
| 1778023824 | 29.44° C | 73% | 1005.2 hPa | 0 mm | - | - | - |
| 1778020224 | 31.67° C | 67% | 1004.6 hPa | 0 mm | - | - | - |
| 1778016626 | 32.78° C | 59% | 1004.8 hPa | 0 mm | - | - | - |
* Rain latest hour (hover to see other rain measurements)
** Current wind speed in m/s (hover to see current wind gust speed)